Time,TemperatureF,DewpointF,PressureIn,WindDirection,WindDirectionDegrees,WindSpeedMPH,WindSpeedGustMPH,Humidity,HourlyPrecipIn,Conditions,Clouds,dailyrainin,SoftwareType,DateUTC
2013-04-27 00:04:00,52.1,46.5,30.31,ESE,112,0.0,0.0,81,0.00,,OVC080,0.00,VWS V14.01,2013-04-27 05:04:00,
2013-04-27 00:09:00,52.1,46.5,30.30,ESE,112,0.0,0.0,81,0.00,,OVC080,0.00,VWS V14.01,2013-04-27 05:09:00,
2013-04-27 00:14:00,52.1,46.5,30.30,ESE,112,0.0,0.0,81,0.00,,OVC080,0.00,VWS V14.01,2013-04-27 05:14:00,
2013-04-27 00:19:00,52.1,46.5,30.30,ESE,112,0.0,0.0,81,0.00,,OVC080,0.00,VWS V14.01,2013-04-27 05:19:00,
2013-04-27 00:24:00,52.1,46.8,30.30,ESE,112,0.0,0.0,82,0.00,,OVC080,0.00,VWS V14.01,2013-04-27 05:24:00,
2013-04-27 00:29:00,52.1,46.8,30.30,ESE,112,0.0,1.0,82,0.00,,OVC080,0.00,VWS V14.01,2013-04-27 05:29:00,
2013-04-27 00:34:00,51.9,46.6,30.29,ESE,112,0.0,0.0,82,0.00,,OVC080,0.00,VWS V14.01,2013-04-27 05:34:00,
2013-04-27 00:39:00,51.9,46.6,30.29,ESE,112,0.0,0.0,82,0.00,,OVC080,0.00,VWS V14.01,2013-04-27 05:39:00,
2013-04-27 00:44:00,51.9,46.6,30.28,ESE,112,0.0,0.0,82,0.00,,OVC070,0.00,VWS V14.01,2013-04-27 05:44:00,
2013-04-27 00:49:00,51.8,46.5,30.28,ESE,115,0.0,1.0,82,0.00,,OVC070,0.00,VWS V14.01,2013-04-27 05:49:00,
2013-04-27 00:54:00,51.7,46.4,30.28,ESE,115,0.0,1.0,82,0.00,,OVC070,0.00,VWS V14.01,2013-04-27 05:54:00,
2013-04-27 00:59:00,51.7,46.4,30.28,ESE,115,0.0,1.0,82,0.00,,OVC070,0.00,VWS V14.01,2013-04-27 05:59:00,
2013-04-27 01:04:00,51.7,46.4,30.28,ESE,115,0.0,1.0,82,0.00,,OVC070,0.00,VWS V14.01,2013-04-27 06:04:00,
2013-04-27 01:09:00,51.7,46.4,30.29,ESE,115,0.0,1.0,82,0.00,,OVC070,0.00,VWS V14.01,2013-04-27 06:09:00,
2013-04-27 01:14:00,51.7,46.4,30.29,ESE,115,0.0,0.0,82,0.00,,OVC070,0.00,VWS V14.01,2013-04-27 06:14:00,
2013-04-27 01:19:00,51.7,46.4,30.29,ESE,115,0.0,0.0,82,0.00,,OVC070,0.00,VWS V14.01,2013-04-27 06:19:00,
2013-04-27 01:24:00,51.7,46.4,30.28,ESE,115,0.0,1.0,82,0.00,,OVC070,0.00,VWS V14.01,2013-04-27 06:24:00,
2013-04-27 01:29:00,51.7,46.4,30.27,ESE,115,0.0,1.0,82,0.00,,OVC070,0.00,VWS V14.01,2013-04-27 06:29:00,
2013-04-27 01:34:00,51.7,46.4,30.27,ESE,115,0.0,0.0,82,0.00,,OVC070,0.00,VWS V14.01,2013-04-27 06:34:00,
2013-04-27 01:39:00,51.7,46.4,30.27,ESE,115,0.0,0.0,82,0.00,,OVC070,0.00,VWS V14.01,2013-04-27 06:39:00,
2013-04-27 01:44:00,51.6,46.3,30.28,ESE,115,0.0,0.0,82,0.00,,OVC070,0.00,VWS V14.01,2013-04-27 06:44:00,
2013-04-27 01:49:00,51.5,46.2,30.28,ESE,115,0.0,0.0,82,0.00,,OVC070,0.00,VWS V14.01,2013-04-27 06:49:00,
2013-04-27 01:54:00,51.5,46.2,30.27,ESE,115,0.0,0.0,82,0.00,,OVC070,0.00,VWS V14.01,2013-04-27 06:54:00,
2013-04-27 01:59:00,51.5,46.2,30.27,ESE,115,0.0,0.0,82,0.00,,OVC070,0.00,VWS V14.01,2013-04-27 06:59:00,
2013-04-27 02:04:00,51.5,46.2,30.26,ESE,115,0.0,0.0,82,0.00,,OVC070,0.00,VWS V14.01,2013-04-27 07:04:00,
2013-04-27 02:09:00,51.5,46.2,30.26,ESE,115,0.0,0.0,82,0.00,,OVC070,0.00,VWS V14.01,2013-04-27 07:09:00,
2013-04-27 02:14:00,51.4,46.1,30.25,ESE,115,0.0,0.0,82,0.00,,OVC070,0.00,VWS V14.01,2013-04-27 07:14:00,
2013-04-27 02:19:00,51.4,46.1,30.25,ESE,115,0.0,0.0,82,0.00,,OVC070,0.00,VWS V14.01,2013-04-27 07:19:00,
2013-04-27 02:24:00,51.4,46.1,30.25,ESE,115,0.0,0.0,82,0.00,,OVC070,0.00,VWS V14.01,2013-04-27 07:24:00,
2013-04-27 02:29:00,51.4,46.1,30.25,ESE,115,0.0,0.0,82,0.00,,OVC070,0.00,VWS V14.01,2013-04-27 07:29:00,
2013-04-27 02:34:00,51.4,46.1,30.25,ESE,115,0.0,0.0,82,0.00,,OVC070,0.00,VWS V14.01,2013-04-27 07:34:00,
2013-04-27 02:39:00,51.3,46.0,30.25,ESE,115,0.0,0.0,82,0.00,,OVC070,0.00,VWS V14.01,2013-04-27 07:39:00,
2013-04-27 02:44:00,51.3,46.0,30.25,ESE,115,0.0,0.0,82,0.00,,OVC070,0.00,VWS V14.01,2013-04-27 07:44:00,
2013-04-27 02:49:00,51.2,45.9,30.25,ESE,115,0.0,0.0,82,0.00,,OVC070,0.00,VWS V14.01,2013-04-27 07:49:00,
2013-04-27 02:54:00,51.2,45.9,30.25,ESE,115,0.0,0.0,82,0.00,,OVC070,0.00,VWS V14.01,2013-04-27 07:54:00,
2013-04-27 02:59:00,51.2,45.9,30.25,ESE,115,0.0,0.0,82,0.00,,OVC070,0.00,VWS V14.01,2013-04-27 07:59:00,
2013-04-27 03:04:00,51.1,45.8,30.25,ESE,115,0.0,0.0,82,0.00,,OVC070,0.00,VWS V14.01,2013-04-27 08:04:00,
2013-04-27 03:09:00,51.2,45.9,30.25,ESE,115,0.0,0.0,82,0.00,,OVC070,0.00,VWS V14.01,2013-04-27 08:09:00,
2013-04-27 03:14:00,51.2,45.9,30.25,ESE,115,0.0,0.0,82,0.00,,OVC070,0.00,VWS V14.01,2013-04-27 08:14:00,
2013-04-27 03:19:00,51.1,45.8,30.24,ESE,115,0.0,0.0,82,0.00,,OVC070,0.00,VWS V14.01,2013-04-27 08:19:00,
2013-04-27 03:24:00,51.1,46.1,30.24,ESE,115,0.0,0.0,83,0.00,,OVC070,0.00,VWS V14.01,2013-04-27 08:24:00,
2013-04-27 03:29:00,51.1,46.1,30.23,ESE,115,0.0,0.0,83,0.00,,OVC070,0.00,VWS V14.01,2013-04-27 08:29:00,
2013-04-27 03:34:00,51.0,45.7,30.23,ESE,115,0.0,0.0,82,0.00,,OVC070,0.00,VWS V14.01,2013-04-27 08:34:00,
2013-04-27 03:39:00,50.9,45.6,30.23,ESE,115,0.0,0.0,82,0.00,,OVC070,0.00,VWS V14.01,2013-04-27 08:39:00,
2013-04-27 03:44:00,50.8,45.5,30.23,ESE,115,0.0,0.0,82,0.00,,RA,0.00,VWS V14.01,2013-04-27 08:44:00,
2013-04-27 03:49:00,50.7,45.4,30.23,ESE,115,0.0,1.0,82,0.00,,RA,0.00,VWS V14.01,2013-04-27 08:49:00,
2013-04-27 03:54:00,50.6,45.3,30.23,ESE,115,0.0,1.0,82,0.00,,RA,0.00,VWS V14.01,2013-04-27 08:54:00,
2013-04-27 03:59:00,50.5,45.2,30.23,ENE,76,0.0,2.0,82,0.00,,RA,0.00,VWS V14.01,2013-04-27 08:59:00,
2013-04-27 04:04:00,50.5,45.2,30.23,ENE,76,0.0,1.0,82,0.00,,OVC070,0.00,VWS V14.01,2013-04-27 09:04:00,
2013-04-27 04:09:00,50.5,45.2,30.23,ENE,76,0.0,1.0,82,0.00,,OVC070,0.00,VWS V14.01,2013-04-27 09:09:00,
2013-04-27 04:14:00,50.4,45.1,30.23,ENE,76,0.0,0.0,82,0.00,,OVC070,0.00,VWS V14.01,2013-04-27 09:14:00,
2013-04-27 04:19:00,50.4,45.1,30.22,ENE,76,0.0,0.0,82,0.00,,OVC070,0.00,VWS V14.01,2013-04-27 09:19:00,
2013-04-27 04:24:00,50.3,45.0,30.22,ENE,76,0.0,2.0,82,0.00,,OVC070,0.00,VWS V14.01,2013-04-27 09:24:00,
2013-04-27 04:29:00,50.3,45.0,30.21,ENE,76,0.0,2.0,82,0.00,,OVC070,0.00,VWS V14.01,2013-04-27 09:29:00,
2013-04-27 04:34:00,50.4,45.1,30.22,ENE,76,0.0,0.0,82,0.00,,OVC070,0.00,VWS V14.01,2013-04-27 09:34:00,
2013-04-27 04:39:00,50.4,45.1,30.21,ENE,76,0.0,1.0,82,0.00,,OVC070,0.00,VWS V14.01,2013-04-27 09:39:00,
2013-04-27 04:44:00,50.4,45.1,30.22,ENE,76,0.0,1.0,82,0.00,,OVC042,0.00,VWS V14.01,2013-04-27 09:44:00,
2013-04-27 04:49:00,50.3,45.0,30.22,ENE,76,0.0,1.0,82,0.00,,OVC042,0.00,VWS V14.01,2013-04-27 09:49:00,
2013-04-27 04:54:00,50.4,45.4,30.22,ENE,76,0.0,0.0,83,0.00,,OVC042,0.00,VWS V14.01,2013-04-27 09:54:00,
2013-04-27 04:59:00,50.4,45.4,30.22,ENE,76,0.0,1.0,83,0.00,,OVC042,0.00,VWS V14.01,2013-04-27 09:59:00,
2013-04-27 05:04:00,50.4,45.1,30.21,ENE,76,0.0,0.0,82,0.00,,OVC060,0.00,VWS V14.01,2013-04-27 10:04:00,
2013-04-27 05:09:00,50.5,45.5,30.21,ENE,76,0.0,0.0,83,0.00,,OVC060,0.00,VWS V14.01,2013-04-27 10:09:00,
2013-04-27 05:14:00,50.5,45.5,30.21,ENE,76,0.0,0.0,83,0.00,,OVC060,0.00,VWS V14.01,2013-04-27 10:14:00,
2013-04-27 05:19:00,50.4,45.4,30.21,ENE,76,0.0,1.0,83,0.00,,OVC060,0.00,VWS V14.01,2013-04-27 10:19:00,
2013-04-27 05:24:00,50.4,45.4,30.21,ENE,76,0.0,1.0,83,0.00,,OVC060,0.00,VWS V14.01,2013-04-27 10:24:00,
2013-04-27 05:29:00,50.5,45.5,30.20,East,83,0.0,1.0,83,0.00,,OVC060,0.00,VWS V14.01,2013-04-27 10:29:00,
2013-04-27 05:34:00,50.5,45.5,30.20,East,83,0.0,1.0,83,0.00,,OVC060,0.00,VWS V14.01,2013-04-27 10:34:00,
2013-04-27 05:39:00,50.4,45.4,30.20,East,93,0.0,2.0,83,0.00,,OVC060,0.00,VWS V14.01,2013-04-27 10:39:00,
2013-04-27 05:44:00,50.4,45.4,30.20,ESE,113,5.0,5.0,83,0.00,,OVC055,0.00,VWS V14.01,2013-04-27 10:44:00,
2013-04-27 05:49:00,50.4,45.4,30.19,ENE,75,0.0,5.0,83,0.00,,OVC055,0.00,VWS V14.01,2013-04-27 10:49:00,
2013-04-27 05:54:00,50.4,45.4,30.18,ESE,110,0.0,5.0,83,0.00,,OVC055,0.00,VWS V14.01,2013-04-27 10:54:00,
2013-04-27 05:59:00,50.4,45.4,30.19,ESE,109,0.0,5.0,83,0.00,,OVC055,0.00,VWS V14.01,2013-04-27 10:59:00,
2013-04-27 06:04:00,50.4,45.4,30.19,ESE,109,0.0,2.0,83,0.00,,OVC055,0.00,VWS V14.01,2013-04-27 11:04:00,
2013-04-27 06:09:00,50.4,45.4,30.20,ESE,109,0.0,4.0,83,0.00,,OVC055,0.00,VWS V14.01,2013-04-27 11:09:00,
2013-04-27 06:14:00,50.4,45.4,30.20,East,83,0.0,1.0,83,0.00,,OVC055,0.00,VWS V14.01,2013-04-27 11:14:00,
2013-04-27 06:19:00,50.4,45.4,30.20,East,83,0.0,1.0,83,0.00,,OVC055,0.00,VWS V14.01,2013-04-27 11:19:00,
2013-04-27 06:24:00,50.5,45.5,30.20,ESE,120,2.0,5.0,83,0.00,,OVC055,0.00,VWS V14.01,2013-04-27 11:24:00,
2013-04-27 06:29:00,50.5,45.5,30.20,East,88,4.0,5.0,83,0.00,,OVC055,0.00,VWS V14.01,2013-04-27 11:29:00,
2013-04-27 06:34:00,50.5,45.5,30.20,East,91,0.0,6.0,83,0.00,,OVC055,0.00,VWS V14.01,2013-04-27 11:34:00,
2013-04-27 06:39:00,50.5,45.5,30.20,East,86,0.0,6.0,83,0.00,,OVC055,0.00,VWS V14.01,2013-04-27 11:39:00,
2013-04-27 06:44:00,50.5,45.5,30.20,SE,132,1.0,5.0,83,0.00,,OVC055,0.00,VWS V14.01,2013-04-27 11:44:00,
2013-04-27 06:49:00,50.5,45.5,30.21,SE,130,0.0,5.0,83,0.00,,OVC055,0.00,VWS V14.01,2013-04-27 11:49:00,
2013-04-27 06:54:00,50.5,45.5,30.21,SE,128,0.0,2.0,83,0.00,,OVC055,0.00,VWS V14.01,2013-04-27 11:54:00,
2013-04-27 07:00:00,50.6,45.6,30.20,SE,128,0.0,2.0,83,0.00,,OVC055,0.00,VWS V14.01,2013-04-27 12:00:00,
2013-04-27 07:05:00,50.6,45.6,30.20,SE,125,4.0,4.0,83,0.00,,OVC055,0.00,VWS V14.01,2013-04-27 12:05:00,
2013-04-27 07:10:00,50.6,45.3,30.19,East,85,3.0,7.0,82,0.00,,OVC055,0.00,VWS V14.01,2013-04-27 12:10:00,
2013-04-27 07:15:00,50.7,45.4,30.19,ESE,111,0.0,7.0,82,0.00,,OVC055,0.00,VWS V14.01,2013-04-27 12:15:00,
2013-04-27 07:20:00,50.8,45.5,30.18,SE,127,7.0,9.0,82,0.00,,OVC055,0.00,VWS V14.01,2013-04-27 12:20:00,
2013-04-27 07:25:00,50.9,45.6,30.18,SE,126,5.0,5.0,82,0.00,,OVC050,0.00,VWS V14.01,2013-04-27 12:25:00,
2013-04-27 07:30:00,51.0,45.7,30.20,SSE,161,0.0,5.0,82,0.00,,OVC050,0.00,VWS V14.01,2013-04-27 12:30:00,
2013-04-27 07:35:00,51.1,46.1,30.20,East,90,5.0,5.0,83,0.00,,OVC045,0.00,VWS V14.01,2013-04-27 12:35:00,
2013-04-27 07:40:00,51.2,46.2,30.20,ESE,123,1.0,7.0,83,0.00,,OVC045,0.00,VWS V14.01,2013-04-27 12:40:00,
2013-04-27 07:45:00,51.2,46.2,30.19,East,94,0.0,4.0,83,0.00,,OVC045,0.00,VWS V14.01,2013-04-27 12:45:00,
2013-04-27 07:50:00,51.3,46.3,30.19,ESE,121,4.0,5.0,83,0.00,,OVC045,0.00,VWS V14.01,2013-04-27 12:50:00,
2013-04-27 07:55:00,51.4,46.4,30.19,East,99,4.0,7.0,83,0.00,,OVC045,0.00,VWS V14.01,2013-04-27 12:55:00,
2013-04-27 08:00:00,51.7,46.7,30.19,SSE,148,0.0,7.0,83,0.00,,OVC045,0.00,VWS V14.01,2013-04-27 13:00:00,
2013-04-27 08:05:00,51.8,46.8,30.19,ESE,109,2.0,8.0,83,0.00,,OVC046,0.00,VWS V14.01,2013-04-27 13:05:00,
2013-04-27 08:10:00,51.9,46.9,30.19,SE,134,4.0,8.0,83,0.00,,OVC046,0.00,VWS V14.01,2013-04-27 13:10:00,
2013-04-27 08:15:00,51.9,46.9,30.19,SE,132,6.0,8.0,83,0.00,,OVC046,0.00,VWS V14.01,2013-04-27 13:15:00,
2013-04-27 08:20:00,51.9,46.9,30.18,SE,134,6.0,9.0,83,0.00,,OVC046,0.00,VWS V14.01,2013-04-27 13:20:00,
2013-04-27 08:25:00,52.1,47.1,30.18,ESE,116,2.0,5.0,83,0.00,,OVC046,0.00,VWS V14.01,2013-04-27 13:25:00,
2013-04-27 08:30:00,52.3,47.0,30.18,ESE,123,2.0,8.0,82,0.00,,OVC046,0.00,VWS V14.01,2013-04-27 13:30:00,
2013-04-27 08:35:00,52.3,47.0,30.18,SSE,150,0.0,8.0,82,0.00,,OVC046,0.00,VWS V14.01,2013-04-27 13:35:00,
2013-04-27 08:40:00,52.4,47.1,30.17,ESE,121,1.0,8.0,82,0.00,,OVC046,0.00,VWS V14.01,2013-04-27 13:40:00,
2013-04-27 08:50:00,52.7,47.4,30.17,SE,131,5.0,9.0,82,0.00,,OVC044,0.00,VWS V14.01,2013-04-27 13:50:00,
2013-04-27 08:55:00,52.9,47.6,30.17,East,92,4.0,9.0,82,0.00,,OVC044,0.00,VWS V14.01,2013-04-27 13:55:00,
2013-04-27 09:00:00,53.0,47.7,30.17,SE,138,2.0,9.0,82,0.00,,OVC044,0.00,VWS V14.01,2013-04-27 14:00:00,
2013-04-27 09:05:00,52.9,47.6,30.17,ENE,76,0.0,7.0,82,0.00,,OVC050,0.00,VWS V14.01,2013-04-27 14:05:00,
2013-04-27 09:10:00,52.9,47.6,30.17,SE,134,1.0,9.0,82,0.00,,OVC050,0.00,VWS V14.01,2013-04-27 14:10:00,
2013-04-27 09:15:00,52.9,47.6,30.16,SE,131,4.0,8.0,82,0.00,,OVC050,0.00,VWS V14.01,2013-04-27 14:15:00,
2013-04-27 09:20:00,52.9,47.6,30.16,ESE,123,0.0,8.0,82,0.00,,OVC050,0.00,VWS V14.01,2013-04-27 14:20:00,
2013-04-27 09:25:00,53.1,47.8,30.16,ESE,120,2.0,6.0,82,0.00,,OVC050,0.00,VWS V14.01,2013-04-27 14:25:00,
2013-04-27 09:30:00,53.3,48.0,30.16,SE,134,2.0,8.0,82,0.00,,OVC050,0.00,VWS V14.01,2013-04-27 14:30:00,
2013-04-27 09:35:00,53.3,48.0,30.16,ESE,110,0.0,8.0,82,0.00,,OVC050,0.00,VWS V14.01,2013-04-27 14:35:00,
2013-04-27 09:40:00,53.4,48.0,30.16,ESE,105,1.0,8.0,82,0.00,,OVC050,0.00,VWS V14.01,2013-04-27 14:40:00,
2013-04-27 09:45:00,53.4,48.0,30.16,ESE,111,9.0,9.0,82,0.00,,OVC042,0.00,VWS V14.01,2013-04-27 14:45:00,
2013-04-27 09:50:00,53.3,48.0,30.16,SE,136,1.0,9.0,82,0.00,,OVC042,0.00,VWS V14.01,2013-04-27 14:50:00,
2013-04-27 09:55:00,53.3,48.0,30.17,ESE,117,1.0,8.0,82,0.00,,OVC042,0.00,VWS V14.01,2013-04-27 14:55:00,
2013-04-27 10:00:00,53.3,48.0,30.17,SE,128,1.0,8.0,82,0.00,,OVC042,0.00,VWS V14.01,2013-04-27 15:00:00,
2013-04-27 10:05:00,53.2,47.9,30.17,ESE,121,5.0,7.0,82,0.00,,OVC042,0.00,VWS V14.01,2013-04-27 15:05:00,
2013-04-27 10:10:00,53.2,47.9,30.17,SE,131,0.0,11.0,82,0.00,,OVC042,0.00,VWS V14.01,2013-04-27 15:10:00,
2013-04-27 10:15:00,53.3,48.0,30.17,SSW,198,0.0,9.0,82,0.00,,OVC042,0.00,VWS V14.01,2013-04-27 15:15:00,
2013-04-27 10:20:00,53.3,48.0,30.17,SE,128,0.0,11.0,82,0.00,,OVC042,0.00,VWS V14.01,2013-04-27 15:20:00,
2013-04-27 10:25:00,53.3,48.0,30.17,ESE,117,4.0,9.0,82,0.00,,OVC042,0.00,VWS V14.01,2013-04-27 15:25:00,
2013-04-27 10:30:00,53.3,48.0,30.17,SW,222,1.0,9.0,82,0.00,,OVC042,0.00,VWS V14.01,2013-04-27 15:30:00,
2013-04-27 10:35:00,53.3,48.0,30.17,SE,127,1.0,8.0,82,0.00,,OVC042,0.00,VWS V14.01,2013-04-27 15:35:00,
2013-04-27 10:40:00,53.2,47.9,30.17,SE,146,8.0,11.0,82,0.00,,OVC042,0.00,VWS V14.01,2013-04-27 15:40:00,
2013-04-27 10:45:00,53.1,47.8,30.17,SE,142,4.0,9.0,82,0.00,,OVC031,0.00,VWS V14.01,2013-04-27 15:45:00,
2013-04-27 10:50:00,52.9,47.9,30.16,ESE,116,0.0,9.0,83,0.00,,OVC031,0.00,VWS V14.01,2013-04-27 15:50:00,
2013-04-27 10:55:00,52.9,47.6,30.16,ESE,117,5.0,7.0,82,0.00,,OVC031,0.00,VWS V14.01,2013-04-27 15:55:00,
2013-04-27 11:00:00,52.8,47.8,30.16,ESE,109,6.0,11.0,83,0.00,,OVC031,0.00,VWS V14.01,2013-04-27 16:00:00,
2013-04-27 11:05:00,52.7,47.4,30.15,ESE,103,6.0,7.0,82,0.00,,,0.00,VWS V14.01,2013-04-27 16:05:00,
2013-04-27 11:10:00,52.7,47.4,30.15,ESE,121,0.0,8.0,82,0.00,,,0.00,VWS V14.01,2013-04-27 16:10:00,
2013-04-27 11:15:00,52.8,47.5,30.15,ESE,106,0.0,4.0,82,0.00,,,0.00,VWS V14.01,2013-04-27 16:15:00,
2013-04-27 11:20:00,52.7,47.4,30.14,ESE,108,6.0,9.0,82,0.00,,,0.00,VWS V14.01,2013-04-27 16:20:00,
2013-04-27 11:25:00,52.7,47.4,30.14,SSE,155,0.0,11.0,82,0.00,,,0.00,VWS V14.01,2013-04-27 16:25:00,
2013-04-27 11:30:00,52.7,47.4,30.14,SSE,166,4.0,11.0,82,0.01,,,0.01,VWS V14.01,2013-04-27 16:30:00,
2013-04-27 11:35:00,52.8,47.8,30.13,ESE,102,0.0,8.0,83,0.01,,,0.01,VWS V14.01,2013-04-27 16:35:00,
2013-04-27 11:40:00,52.9,47.6,30.12,East,89,8.0,8.0,82,0.01,,,0.01,VWS V14.01,2013-04-27 16:40:00,
2013-04-27 11:45:00,53.0,47.7,30.11,East,82,1.0,11.0,82,0.01,,-RA,0.01,VWS V14.01,2013-04-27 16:45:00,
2013-04-27 11:50:00,53.1,47.8,30.11,East,83,3.0,11.0,82,0.01,,-RA,0.01,VWS V14.01,2013-04-27 16:50:00,
2013-04-27 11:55:00,53.2,47.9,30.11,NE,56,0.0,7.0,82,0.01,,-RA,0.01,VWS V14.01,2013-04-27 16:55:00,
2013-04-27 12:00:00,53.4,48.4,30.11,NE,46,5.0,7.0,83,0.01,,-RA,0.01,VWS V14.01,2013-04-27 17:00:00,
2013-04-27 12:05:00,53.5,48.5,30.11,ENE,58,2.0,6.0,83,0.01,,-RA,0.01,VWS V14.01,2013-04-27 17:05:00,
2013-04-27 12:10:00,53.8,48.4,30.11,ENE,68,3.0,8.0,82,0.01,,-RA,0.01,VWS V14.01,2013-04-27 17:10:00,
2013-04-27 12:15:00,54.0,48.6,30.11,SE,125,0.0,7.0,82,0.01,,-RA,0.01,VWS V14.01,2013-04-27 17:15:00,
2013-04-27 12:20:00,54.3,48.9,30.11,SE,140,1.0,7.0,82,0.01,,-RA,0.01,VWS V14.01,2013-04-27 17:20:00,
2013-04-27 12:25:00,54.7,49.3,30.11,SE,125,4.0,9.0,82,0.01,,-RA,0.01,VWS V14.01,2013-04-27 17:25:00,
2013-04-27 12:30:00,54.9,49.5,30.11,ENE,67,0.0,9.0,82,0.01,,-RA,0.01,VWS V14.01,2013-04-27 17:30:00,
2013-04-27 12:35:00,55.2,49.8,30.11,SE,124,0.0,7.0,82,0.00,,-RA,0.01,VWS V14.01,2013-04-27 17:35:00,
2013-04-27 12:40:00,55.3,49.9,30.11,East,95,5.0,9.0,82,0.00,,-RA,0.01,VWS V14.01,2013-04-27 17:40:00,
2013-04-27 12:45:00,55.5,50.1,30.11,SE,141,0.0,7.0,82,0.00,,-RA,0.01,VWS V14.01,2013-04-27 17:45:00,
2013-04-27 12:50:00,55.7,50.3,30.10,ESE,119,2.0,11.0,82,0.00,,-RA,0.01,VWS V14.01,2013-04-27 17:50:00,
2013-04-27 12:55:00,56.0,50.6,30.10,SE,142,5.0,12.0,82,0.00,,-RA,0.01,VWS V14.01,2013-04-27 17:55:00,
2013-04-27 13:00:00,56.1,50.7,30.10,South,183,5.0,13.0,82,0.00,,-RA,0.01,VWS V14.01,2013-04-27 18:00:00,
2013-04-27 13:05:00,56.2,50.8,30.10,SE,138,6.0,12.0,82,0.00,,OVC012,0.01,VWS V14.01,2013-04-27 18:05:00,
2013-04-27 13:10:00,56.3,50.9,30.10,ESE,121,6.0,12.0,82,0.00,,OVC012,0.01,VWS V14.01,2013-04-27 18:10:00,
2013-04-27 13:15:00,56.3,50.9,30.10,ENE,72,0.0,8.0,82,0.00,,OVC012,0.01,VWS V14.01,2013-04-27 18:15:00,
2013-04-27 13:20:00,56.4,51.0,30.10,ESE,119,6.0,8.0,82,0.00,,OVC012,0.01,VWS V14.01,2013-04-27 18:20:00,
2013-04-27 13:25:00,56.4,51.0,30.10,SE,136,4.0,8.0,82,0.00,,OVC012,0.01,VWS V14.01,2013-04-27 18:25:00,
2013-04-27 13:30:00,56.5,51.1,30.09,SSE,153,0.0,9.0,82,0.00,,OVC012,0.01,VWS V14.01,2013-04-27 18:30:00,
2013-04-27 13:35:00,56.6,51.2,30.09,SE,140,2.0,9.0,82,0.00,,OVC012,0.01,VWS V14.01,2013-04-27 18:35:00,
2013-04-27 13:40:00,56.7,51.3,30.08,ESE,111,0.0,11.0,82,0.00,,OVC012,0.01,VWS V14.01,2013-04-27 18:40:00,
2013-04-27 13:45:00,56.8,51.0,30.08,SE,135,2.0,9.0,81,0.00,,OVC016,0.01,VWS V14.01,2013-04-27 18:45:00,
2013-04-27 13:50:00,56.8,51.4,30.08,ESE,115,4.0,9.0,82,0.00,,OVC016,0.01,VWS V14.01,2013-04-27 18:50:00,
2013-04-27 13:55:00,56.9,51.5,30.09,ESE,103,1.0,5.0,82,0.00,,OVC016,0.01,VWS V14.01,2013-04-27 18:55:00,
2013-04-27 14:00:00,56.9,51.1,30.08,ESE,105,8.0,9.0,81,0.00,,OVC016,0.01,VWS V14.01,2013-04-27 19:00:00,
2013-04-27 14:05:00,56.9,51.1,30.08,SSE,147,1.0,6.0,81,0.00,,OVC016,0.01,VWS V14.01,2013-04-27 19:05:00,
2013-04-27 14:10:00,56.9,51.1,30.08,SE,126,2.0,12.0,81,0.00,,OVC016,0.01,VWS V14.01,2013-04-27 19:10:00,
2013-04-27 14:15:00,56.9,51.1,30.08,ESE,115,2.0,9.0,81,0.00,,OVC016,0.01,VWS V14.01,2013-04-27 19:15:00,
2013-04-27 14:20:00,56.9,51.5,30.07,ESE,116,0.0,9.0,82,0.00,,OVC016,0.01,VWS V14.01,2013-04-27 19:20:00,
2013-04-27 14:25:00,56.9,51.5,30.07,SSE,161,5.0,7.0,82,0.00,,OVC016,0.01,VWS V14.01,2013-04-27 19:25:00,
2013-04-27 14:30:00,56.9,51.5,30.07,SSE,153,7.0,9.0,82,0.00,,OVC016,0.01,VWS V14.01,2013-04-27 19:30:00,
2013-04-27 14:35:00,57.0,51.6,30.07,ESE,115,1.0,11.0,82,0.00,,OVC016,0.01,VWS V14.01,2013-04-27 19:35:00,
2013-04-27 14:41:00,57.0,51.6,30.07,East,80,2.0,11.0,82,0.00,,OVC016,0.01,VWS V14.01,2013-04-27 19:41:00,
2013-04-27 14:51:00,57.2,51.8,30.06,SE,128,0.0,8.0,82,0.00,,OVC016,0.01,VWS V14.01,2013-04-27 19:51:00,
2013-04-27 14:56:00,57.3,51.9,30.06,SE,142,6.0,8.0,82,0.00,,OVC016,0.01,VWS V14.01,2013-04-27 19:56:00,
2013-04-27 15:01:00,57.2,51.8,30.06,SE,124,2.0,8.0,82,0.00,,OVC016,0.01,VWS V14.01,2013-04-27 20:01:00,
2013-04-27 15:06:00,57.2,51.8,30.05,ESE,111,4.0,6.0,82,0.00,,OVC014,0.01,VWS V14.01,2013-04-27 20:06:00,
2013-04-27 15:11:00,57.2,51.8,30.04,ESE,119,1.0,11.0,82,0.00,,OVC014,0.01,VWS V14.01,2013-04-27 20:11:00,
2013-04-27 15:16:00,57.3,51.9,30.04,ESE,120,7.0,8.0,82,0.00,,OVC014,0.01,VWS V14.01,2013-04-27 20:16:00,
2013-04-27 15:21:00,57.4,52.0,30.04,East,99,0.0,10.0,82,0.00,,OVC014,0.01,VWS V14.01,2013-04-27 20:21:00,
2013-04-27 15:26:00,57.4,52.0,30.04,ESE,121,7.0,8.0,82,0.00,,OVC014,0.01,VWS V14.01,2013-04-27 20:26:00,
2013-04-27 15:31:00,57.4,52.0,30.03,SE,141,7.0,11.0,82,0.00,,OVC014,0.01,VWS V14.01,2013-04-27 20:31:00,
2013-04-27 15:36:00,57.5,52.1,30.03,ESE,105,0.0,9.0,82,0.00,,OVC014,0.01,VWS V14.01,2013-04-27 20:36:00,
2013-04-27 15:41:00,57.5,52.1,30.02,SE,132,6.0,15.0,82,0.00,,OVC014,0.01,VWS V14.01,2013-04-27 20:41:00,
2013-04-27 15:46:00,57.5,52.1,30.02,SE,130,0.0,9.0,82,0.00,,OVC014,0.01,VWS V14.01,2013-04-27 20:46:00,
2013-04-27 15:51:00,57.5,52.1,30.02,SE,135,1.0,9.0,82,0.00,,OVC014,0.01,VWS V14.01,2013-04-27 20:51:00,
2013-04-27 15:56:00,57.5,52.1,30.01,SSE,159,4.0,13.0,82,0.00,,OVC014,0.01,VWS V14.01,2013-04-27 20:56:00,
2013-04-27 16:01:00,57.4,52.0,30.01,ESE,117,0.0,13.0,82,0.00,,OVC014,0.01,VWS V14.01,2013-04-27 21:01:00,
2013-04-27 16:06:00,57.4,52.0,30.01,East,91,5.0,12.0,82,0.00,,OVC014,0.01,VWS V14.01,2013-04-27 21:06:00,
2013-04-27 16:11:00,57.3,51.9,30.01,SE,135,5.0,12.0,82,0.00,,OVC014,0.01,VWS V14.01,2013-04-27 21:11:00,
2013-04-27 16:16:00,57.3,51.9,30.01,ESE,106,5.0,12.0,82,0.00,,OVC014,0.01,VWS V14.01,2013-04-27 21:16:00,
2013-04-27 16:21:00,57.2,51.8,30.01,ENE,69,0.0,12.0,82,0.00,,OVC014,0.01,VWS V14.01,2013-04-27 21:21:00,
2013-04-27 16:26:00,57.3,51.9,30.01,SE,135,5.0,7.0,82,0.00,,OVC014,0.01,VWS V14.01,2013-04-27 21:26:00,
2013-04-27 16:31:00,57.2,51.8,30.01,SE,140,4.0,9.0,82,0.00,,OVC014,0.01,VWS V14.01,2013-04-27 21:31:00,
2013-04-27 16:36:00,57.1,51.7,30.01,SE,130,4.0,7.0,82,0.00,,OVC014,0.01,VWS V14.01,2013-04-27 21:36:00,
2013-04-27 16:41:00,56.9,51.5,30.01,SE,134,1.0,7.0,82,0.00,,OVC014,0.01,VWS V14.01,2013-04-27 21:41:00,
2013-04-27 16:46:00,56.7,51.3,30.01,East,101,1.0,8.0,82,0.00,,OVC012,0.01,VWS V14.01,2013-04-27 21:46:00,
2013-04-27 16:51:00,56.6,51.2,30.01,SE,146,0.0,8.0,82,0.00,,OVC012,0.01,VWS V14.01,2013-04-27 21:51:00,
2013-04-27 16:56:00,56.5,51.1,30.01,SE,130,0.0,6.0,82,0.00,,OVC012,0.01,VWS V14.01,2013-04-27 21:56:00,
2013-04-27 17:01:00,56.4,51.0,30.01,SSE,147,0.0,6.0,82,0.00,,OVC012,0.01,VWS V14.01,2013-04-27 22:01:00,
2013-04-27 17:06:00,56.3,50.9,30.00,ESE,102,2.0,5.0,82,0.00,,RA,0.01,VWS V14.01,2013-04-27 22:06:00,
2013-04-27 17:11:00,56.3,50.9,30.00,ESE,102,0.0,5.0,82,0.00,,RA,0.01,VWS V14.01,2013-04-27 22:11:00,
2013-04-27 17:16:00,56.3,50.9,30.00,SE,134,2.0,5.0,82,0.00,,RA,0.01,VWS V14.01,2013-04-27 22:16:00,
2013-04-27 17:21:00,56.2,50.8,30.00,SE,134,0.0,5.0,82,0.00,,RA,0.01,VWS V14.01,2013-04-27 22:21:00,
2013-04-27 17:26:00,56.1,50.7,29.99,SSE,153,0.0,6.0,82,0.00,,RA,0.01,VWS V14.01,2013-04-27 22:26:00,
2013-04-27 17:31:00,56.0,50.6,29.99,SE,134,6.0,6.0,82,0.00,,RA,0.01,VWS V14.01,2013-04-27 22:31:00,
2013-04-27 17:36:00,56.0,50.6,29.99,SE,125,0.0,5.0,82,0.00,,RA,0.01,VWS V14.01,2013-04-27 22:36:00,
2013-04-27 17:41:00,56.0,50.6,29.99,SE,128,1.0,5.0,82,0.00,,RA,0.01,VWS V14.01,2013-04-27 22:41:00,
2013-04-27 17:46:00,55.9,50.5,29.99,ESE,105,0.0,1.0,82,0.00,,-RA,0.01,VWS V14.01,2013-04-27 22:46:00,
2013-04-27 17:51:00,55.9,50.5,29.99,ESE,119,1.0,5.0,82,0.00,,-RA,0.01,VWS V14.01,2013-04-27 22:51:00,
2013-04-27 17:56:00,55.9,50.8,29.99,ESE,119,0.0,1.0,83,0.00,,-RA,0.01,VWS V14.01,2013-04-27 22:56:00,
2013-04-27 18:01:00,55.8,50.7,29.98,ESE,119,0.0,1.0,83,0.00,,-RA,0.01,VWS V14.01,2013-04-27 23:01:00,
2013-04-27 18:06:00,55.8,50.7,29.98,ESE,107,0.0,4.0,83,0.00,,OVC006,0.01,VWS V14.01,2013-04-27 23:06:00,
2013-04-27 18:11:00,55.8,50.7,29.97,East,93,0.0,4.0,83,0.00,,OVC006,0.01,VWS V14.01,2013-04-27 23:11:00,
2013-04-27 18:16:00,55.7,50.6,29.97,ENE,71,0.0,3.0,83,0.01,,OVC006,0.02,VWS V14.01,2013-04-27 23:16:00,
2013-04-27 18:21:00,55.7,50.6,29.97,East,100,1.0,4.0,83,0.01,,OVC006,0.02,VWS V14.01,2013-04-27 23:21:00,
2013-04-27 18:26:00,55.7,50.6,29.96,East,81,4.0,5.0,83,0.01,,OVC006,0.02,VWS V14.01,2013-04-27 23:26:00,
2013-04-27 18:31:00,55.7,50.6,29.97,ENE,69,0.0,5.0,83,0.01,,OVC006,0.02,VWS V14.01,2013-04-27 23:31:00,
2013-04-27 18:36:00,55.7,50.6,29.97,ENE,68,0.0,4.0,83,0.01,,OVC006,0.02,VWS V14.01,2013-04-27 23:36:00,
2013-04-27 18:41:00,55.6,50.5,29.96,ESE,102,0.0,4.0,83,0.01,,OVC006,0.02,VWS V14.01,2013-04-27 23:41:00,
2013-04-27 18:46:00,55.7,50.6,29.96,NE,51,0.0,4.0,83,0.01,,,0.02,VWS V14.01,2013-04-27 23:46:00,
2013-04-27 18:51:00,55.6,50.5,29.96,ESE,119,0.0,5.0,83,0.01,,,0.02,VWS V14.01,2013-04-27 23:51:00,
2013-04-27 18:56:00,55.6,50.5,29.96,ESE,107,0.0,5.0,83,0.01,,,0.02,VWS V14.01,2013-04-27 23:56:00,
2013-04-27 19:01:00,55.6,50.5,29.95,ENE,72,1.0,5.0,83,0.01,,,0.02,VWS V14.01,2013-04-28 00:01:00,
2013-04-27 19:06:00,55.6,50.5,29.95,SE,136,2.0,5.0,83,0.01,,,0.02,VWS V14.01,2013-04-28 00:06:00,
2013-04-27 19:11:00,55.5,50.4,29.95,ESE,111,0.0,5.0,83,0.01,,,0.02,VWS V14.01,2013-04-28 00:11:00,
2013-04-27 19:16:00,55.5,50.4,29.94,ESE,111,0.0,2.0,83,0.01,,,0.02,VWS V14.01,2013-04-28 00:16:00,
2013-04-27 19:21:00,55.5,50.4,29.94,East,85,0.0,3.0,83,0.01,,,0.02,VWS V14.01,2013-04-28 00:21:00,
2013-04-27 19:26:00,55.5,50.4,29.94,ESE,115,0.0,5.0,83,0.00,,,0.02,VWS V14.01,2013-04-28 00:26:00,
2013-04-27 19:31:00,55.5,50.4,29.95,ENE,76,0.0,5.0,83,0.00,,,0.02,VWS V14.01,2013-04-28 00:31:00,
2013-04-27 19:36:00,55.5,50.4,29.95,East,98,0.0,4.0,83,0.00,,,0.02,VWS V14.01,2013-04-28 00:36:00,
2013-04-27 19:41:00,55.5,50.4,29.95,East,100,0.0,4.0,83,0.00,,,0.02,VWS V14.01,2013-04-28 00:41:00,
2013-04-27 19:46:00,55.5,50.4,29.95,ESE,121,0.0,6.0,83,0.00,,,0.02,VWS V14.01,2013-04-28 00:46:00,
2013-04-27 19:51:00,55.5,50.4,29.95,ESE,119,0.0,6.0,83,0.00,,,0.02,VWS V14.01,2013-04-28 00:51:00,
2013-04-27 19:56:00,55.5,50.4,29.95,ESE,120,0.0,0.0,83,0.00,,,0.02,VWS V14.01,2013-04-28 00:56:00,
2013-04-27 20:01:00,55.5,50.4,29.95,ESE,120,0.0,0.0,83,0.00,,,0.02,VWS V14.01,2013-04-28 01:01:00,
2013-04-27 20:06:00,55.5,50.4,29.95,ESE,120,0.0,2.0,83,0.00,,,0.02,VWS V14.01,2013-04-28 01:06:00,
2013-04-27 20:11:00,55.5,50.4,29.95,ESE,113,0.0,0.0,83,0.00,,,0.02,VWS V14.01,2013-04-28 01:11:00,
2013-04-27 20:16:00,55.5,50.4,29.95,ESE,113,0.0,0.0,83,0.00,,,0.02,VWS V14.01,2013-04-28 01:16:00,
2013-04-27 20:21:00,55.5,50.4,29.95,ESE,113,0.0,0.0,83,0.00,,,0.02,VWS V14.01,2013-04-28 01:21:00,
2013-04-27 20:26:00,55.5,50.4,29.94,ESE,113,0.0,2.0,83,0.01,,,0.03,VWS V14.01,2013-04-28 01:26:00,
2013-04-27 20:31:00,55.5,50.4,29.94,ESE,113,0.0,0.0,83,0.01,,,0.03,VWS V14.01,2013-04-28 01:31:00,
2013-04-27 20:36:00,55.5,50.4,29.94,ESE,113,0.0,4.0,83,0.01,,,0.03,VWS V14.01,2013-04-28 01:36:00,
2013-04-27 20:41:00,55.5,50.4,29.94,ESE,113,0.0,0.0,83,0.01,,RA,0.03,VWS V14.01,2013-04-28 01:41:00,
2013-04-27 20:46:00,55.5,50.4,29.93,ESE,113,0.0,4.0,83,0.01,,RA,0.03,VWS V14.01,2013-04-28 01:46:00,
2013-04-27 20:51:00,55.5,50.4,29.93,SE,139,0.0,0.0,83,0.02,,RA,0.04,VWS V14.01,2013-04-28 01:51:00,
2013-04-27 20:56:00,55.5,50.4,29.93,NE,35,0.0,4.0,83,0.02,,RA,0.04,VWS V14.01,2013-04-28 01:56:00,
2013-04-27 21:01:00,55.4,50.3,29.93,East,81,0.0,0.0,83,0.02,,,0.04,VWS V14.01,2013-04-28 02:01:00,
2013-04-27 21:06:00,55.4,50.3,29.93,ESE,115,1.0,5.0,83,0.02,,,0.04,VWS V14.01,2013-04-28 02:06:00,
2013-04-27 21:11:00,55.5,50.4,29.93,ESE,115,0.0,0.0,83,0.02,,,0.04,VWS V14.01,2013-04-28 02:11:00,
2013-04-27 21:16:00,55.5,50.4,29.93,SE,126,0.0,5.0,83,0.02,,,0.04,VWS V14.01,2013-04-28 02:16:00,
2013-04-27 21:21:00,55.5,50.4,29.92,ESE,107,0.0,0.0,83,0.02,,,0.04,VWS V14.01,2013-04-28 02:21:00,
2013-04-27 21:26:00,55.5,50.4,29.92,ESE,110,0.0,2.0,83,0.02,,,0.04,VWS V14.01,2013-04-28 02:26:00,
2013-04-27 21:31:00,55.5,50.4,29.93,ESE,109,0.0,0.0,83,0.01,,OVC004,0.04,VWS V14.01,2013-04-28 02:31:00,
2013-04-27 21:36:00,55.5,50.4,29.93,ESE,109,0.0,1.0,83,0.01,,OVC004,0.04,VWS V14.01,2013-04-28 02:36:00,
2013-04-27 21:41:00,55.5,50.4,29.92,ESE,109,0.0,0.0,83,0.01,,OVC004,0.04,VWS V14.01,2013-04-28 02:41:00,
2013-04-27 21:46:00,55.5,50.4,29.92,ESE,109,0.0,1.0,83,0.01,,OVC004,0.04,VWS V14.01,2013-04-28 02:46:00,
2013-04-27 21:51:00,55.5,50.4,29.92,East,94,0.0,0.0,83,0.00,,OVC004,0.04,VWS V14.01,2013-04-28 02:51:00,
2013-04-27 21:56:00,55.5,50.4,29.92,East,94,0.0,1.0,83,0.00,,OVC004,0.04,VWS V14.01,2013-04-28 02:56:00,
2013-04-27 22:01:00,55.5,50.4,29.92,East,94,0.0,0.0,83,0.00,,,0.04,VWS V14.01,2013-04-28 03:01:00,
2013-04-27 22:06:00,55.5,50.4,29.92,East,96,0.0,4.0,83,0.01,,,0.05,VWS V14.01,2013-04-28 03:06:00,
2013-04-27 22:11:00,55.5,50.4,29.92,SE,128,1.0,4.0,83,0.04,,,0.08,VWS V14.01,2013-04-28 03:11:00,
2013-04-27 22:16:00,55.5,50.4,29.92,SE,128,0.0,4.0,83,0.05,,,0.09,VWS V14.01,2013-04-28 03:16:00,
2013-04-27 22:21:00,55.5,50.4,29.92,SE,126,0.0,0.0,83,0.06,,,0.10,VWS V14.01,2013-04-28 03:21:00,
2013-04-27 22:26:00,55.5,50.8,29.92,SE,126,0.0,0.0,84,0.06,,,0.10,VWS V14.01,2013-04-28 03:26:00,
2013-04-27 22:32:00,55.6,50.8,29.92,SE,126,1.0,1.0,84,0.06,,,0.10,VWS V14.01,2013-04-28 03:32:00,
2013-04-27 22:37:00,55.6,50.8,29.91,SE,126,0.0,1.0,84,0.07,,,0.11,VWS V14.01,2013-04-28 03:37:00,
2013-04-27 22:42:00,55.6,50.8,29.91,SE,126,0.0,0.0,84,0.08,,RA,0.12,VWS V14.01,2013-04-28 03:42:00,
2013-04-27 22:47:00,55.6,50.8,29.91,SE,126,0.0,1.0,84,0.08,,RA,0.12,VWS V14.01,2013-04-28 03:47:00,
2013-04-27 22:52:00,55.6,50.8,29.91,SE,126,0.0,0.0,84,0.08,,RA,0.12,VWS V14.01,2013-04-28 03:52:00,
2013-04-27 22:57:00,55.6,50.8,29.91,SE,126,0.0,0.0,84,0.11,,RA,0.15,VWS V14.01,2013-04-28 03:57:00,
2013-04-27 23:01:00,55.6,50.8,29.91,SE,126,0.0,1.0,84,0.11,, +RA,0.15,VWS V14.01,2013-04-28 04:01:00,
2013-04-27 23:02:00,55.6,50.8,29.91,SE,126,0.0,0.0,84,0.11,, +RA,0.15,VWS V14.01,2013-04-28 04:02:00,
2013-04-27 23:07:00,55.6,50.8,29.90,SE,126,0.0,0.0,84,0.12,, +RA,0.16,VWS V14.01,2013-04-28 04:07:00,
2013-04-27 23:12:00,55.6,50.8,29.90,SE,126,0.0,0.0,84,0.08,, +RA,0.16,VWS V14.01,2013-04-28 04:12:00,
2013-04-27 23:17:00,55.6,50.8,29.90,SE,126,0.0,0.0,84,0.08,, +RA,0.16,VWS V14.01,2013-04-28 04:17:00,
2013-04-27 23:22:00,55.6,50.8,29.90,SE,126,0.0,0.0,84,0.07,, +RA,0.17,VWS V14.01,2013-04-28 04:22:00,
2013-04-27 23:27:00,55.6,50.8,29.90,SE,126,0.0,0.0,84,0.07,, +RA,0.17,VWS V14.01,2013-04-28 04:27:00,
2013-04-27 23:32:00,55.6,50.8,29.89,SE,126,0.0,0.0,84,0.07,, +RA,0.17,VWS V14.01,2013-04-28 04:32:00,
2013-04-27 23:37:00,55.7,51.0,29.89,SE,126,0.0,0.0,84,0.07,, +RA,0.17,VWS V14.01,2013-04-28 04:37:00,
2013-04-27 23:42:00,55.6,50.8,29.89,SE,126,0.0,0.0,84,0.05,,-RA,0.17,VWS V14.01,2013-04-28 04:42:00,
2013-04-27 23:47:00,55.6,50.8,29.89,SE,126,0.0,0.0,84,0.05,,-RA,0.17,VWS V14.01,2013-04-28 04:47:00,
2013-04-27 23:52:00,55.6,50.8,29.89,SE,126,0.0,0.0,84,0.05,,-RA,0.17,VWS V14.01,2013-04-28 04:52:00,
2013-04-27 23:57:00,55.6,50.8,29.89,SE,126,0.0,0.0,84,0.05,,-RA,0.17,VWS V14.01,2013-04-28 04:57:00,